Location: ?????????
(53.2086°N, 54.0693°E)
Time: 12:51:22
(UTC+00:00)

Cosmos 1867 - Pass Details

Date: 08 December 2019
Orbit: 777 x 799 km, 65.0° (Epoch: 16 January)

Event Time Altitude Azimuth Distance (km) Brightness Sun altitude
Rises 15:42:10 0° 315° (NW) 3,316 7.4 -30.9°
Reaches altitude 10° 15:44:39 10° 311° (NW) 2,382 6.6 -31.2°
Enters shadow 15:49:21 52° 262° (W) 990 4.2 -32.0°
